Wetbulb
27.44 26.77 26.73 26.11 25.76 25.99 25.87 25.72 25.64 25.70 25.37 25.13 24.86 24.58 24.32 23.99 24.07 23.67 23.49 24.02 23.30 23.58 24.12 24.39 24.20 25.23 25.11 25.65 26.05 26.15 25.70 25.98 23.89 26.54 29.38 30.57 30.77 31.21 32.39 34.47 35.64 35.64 36.51
26.96 26.33 26.37 25.76 25.71 25.41 25.10 25.10 25.41 24.69 24.82 24.49 23.80 23.20 22.87 22.57 22.61 22.04 21.76 22.35 22.33 22.27 22.79 22.98 22.93 24.11 23.48 24.12 24.26 23.80 24.12 25.25 24.30 22.41 25.77 27.47 28.25 30.47 31.49 31.53 32.11 33.61 34.70
26.08 25.96 25.33 25.19 24.92 24.80 24.71 24.81 24.59 23.74 23.06 22.58 21.99 21.07 20.89 20.84 20.77 21.27 21.81 21.63 21.59 21.39 21.50 21.19 21.19 21.49 21.11 22.38 22.43 22.37 23.34 23.79 24.26 23.27 22.56 26.73 27.98 29.28 28.93 30.45 31.27 32.53 33.36
25.56 25.12 24.96 24.79 24.74 24.47 24.31 23.55 22.70 22.08 20.94 20.24 20.17 19.69 19.47 19.52 20.10 21.17 21.24 20.91 20.96 21.09 21.02 20.81 20.31 19.89 19.57 19.90 20.42 20.64 21.69 21.58 22.11 21.62 21.86 22.69 24.63 26.64 28.01 27.22 27.65 31.17 31.16
25.23 24.90 24.96 25.51 24.34 23.38 22.50 21.22 20.40 19.83 19.44 18.89 18.34 17.49 17.63 18.24 20.69 20.82 21.19 20.70 19.63 19.17 19.24 19.13 19.44 19.77 20.57 20.74 20.34 20.18 20.19 19.61 19.68 19.11 19.23 20.93 22.12 23.00 23.53 27.17 27.11 29.07 30.49
25.18 25.09 24.73 23.95 22.36 21.33 20.14 19.33 18.51 17.72 16.86 16.39 15.62 14.84 14.40 16.96 19.23 21.97 22.09 19.60 18.56 17.30 16.64 17.34 17.74 17.56 18.42 19.86 20.50 21.25 21.11 18.42 16.99 17.56 17.84 17.22 18.20 19.50 21.66 22.04 22.82 22.76 22.44
23.33 21.64 21.64 21.29 20.57 19.13 17.72 16.82 16.09 14.81 14.50 13.59 13.38 13.16 12.61 13.22 18.41 20.97 20.96 18.76 17.52 16.32 15.45 15.38 15.56 16.78 16.52 16.16 17.49 19.09 19.34 19.97 21.25 19.51 17.72 17.72 17.69 18.75 19.29 18.57 18.97 19.53 19.62
22.14 20.57 18.94 18.83 17.06 15.32 14.12 13.50 13.09 12.87 11.97 11.55 11.31 11.14 11.51 12.29 17.31 18.98 19.80 17.64 15.79 15.38 15.35 15.16 14.70 14.92 15.77 16.43 16.32 17.15 17.69 18.41 19.03 19.73 19.31 19.53 20.23 21.26 21.06 20.82 20.42 20.76 22.13
21.05 20.17 18.39 16.93 13.93 13.14 10.75 10.69 10.81 10.20 9.80 9.27 11.43 9.42 8.21 8.68 14.05 17.82 18.12 16.07 14.60 14.23 15.26 15.77 15.61 15.33 17.49 20.06 19.30 18.59 18.68 19.08 22.13 23.68 24.24 24.88 25.43 25.84 25.34 22.92 19.86 18.38 16.81
20.35 19.64 16.75 14.19 10.20 9.01 10.54 8.84 9.00 7.38 9.48 9.36 8.48 8.04 6.84 6.27 11.59 15.62 17.12 16.24 14.01 14.63 15.69 15.93 18.46 18.90 21.30 22.47 20.01 18.84 16.68 17.94 19.25 19.44 20.14 21.59 23.07 22.85 24.43 22.92 21.08 16.99 16.68
17.07 15.27 12.98 11.84 8.89 8.54 6.90 7.45 5.22 4.46 5.92 2.58 4.21 4.92 4.90 6.28 7.22 14.68 17.52 16.81 16.02 15.79 16.65 16.85 17.58 20.50 21.94 23.20 24.04 21.79 21.35 23.04 23.91 22.96 21.95 22.17 22.07 21.77 21.30 21.20 21.23 19.88 17.28
13.10 11.33 9.40 6.01 8.79 6.83 1.39 2.37 1.42 1.15 0.95 0.59 0.80 2.91 6.07 7.32 10.75 14.41 17.84 19.78 20.45 17.37 16.65 17.57 18.21 21.70 24.37 24.53 22.57 22.46 22.71 22.00 18.55 16.69 16.43 17.18 18.45 19.30 20.34 21.04 21.80 21.90 22.05
8.79 5.95 3.71 3.59 4.84 3.82 0.14 1.84 2.98 0.89 0.50 1.21 3.12 3.37 4.84 8.18 9.34 14.51 17.34 18.83 20.04 18.58 19.04 19.94 22.40 20.57 20.07 17.38 17.53 18.65 17.16 14.44 13.31 12.21 12.29 13.73 16.41 18.62 20.15 20.67 21.20 21.06 20.72
4.25 4.39 3.77 2.80 3.87 2.31 5.53 4.54 2.31 1.35 1.91 2.28 1.27 2.16 4.03 6.38 8.61 13.14 13.38 14.98 19.22 18.86 19.83 15.29 15.11 13.22 13.02 12.60 9.98 11.65 11.12 11.34 10.48 9.84 10.52 12.98 15.22 15.68 15.58 17.38 16.58 17.63 16.77
3.98 4.82 4.46 2.98 2.15 4.30 4.74 4.35 4.59 4.86 3.80 -1.77 0.16 2.72 4.51 6.09 11.75 17.29 18.86 17.89 18.91 18.83 13.61 6.08 3.55 3.84 3.74 4.95 5.89 6.43 7.82 8.35 7.93 9.27 9.67 10.63 12.03 13.12 14.07 16.19 15.83 15.63 14.00
3.88 3.57 3.14 3.39 2.77 3.46 3.13 3.06 8.08 11.89 14.20 16.02 17.49 16.91 15.79 17.43 17.89 18.68 19.51 20.25 19.94 16.63 3.79 -1.11 -0.39 0.68 1.06 2.13 2.60 3.44 5.14 5.52 6.84 7.85 8.11 9.74 10.75 13.18 14.05 15.17 15.68 14.93 13.63
2.14 3.01 2.91 3.23 1.86 1.24 0.69 0.26 -0.99 2.82 8.29 10.90 12.87 14.60 15.71 15.58 17.04 17.14 18.30 18.17 13.48 9.79 -2.18 -2.23 -1.89 -0.83 0.27 1.64 2.33 2.98 2.96 4.96 6.26 6.90 7.83 9.09 10.21 13.16 13.87 13.84 14.32 14.74 14.50
-5.84 0.28 -0.42 -0.27 -0.57 -1.27 -1.54 -1.95 -1.53 -3.16 -6.22 -3.47 2.78 7.24 10.71 13.73 13.78 15.63 15.60 9.21 -2.33 -2.06 -4.64 -3.74 -2.57 -0.95 0.42 1.29 2.23 2.65 3.34 4.33 5.45 6.78 7.79 8.70 9.94 11.15 11.83 13.78 14.49 14.47 15.61
-5.01 -3.89 -3.29 -3.38 -3.66 -2.81 -2.39 -3.01 -3.04 -4.90 -5.20 -5.96 -4.74 0.26 2.42 7.48 10.98 11.34 8.46 -3.81 -6.70 -5.45 -3.81 -3.03 -1.64 -0.90 0.39 1.52 2.14 2.68 3.27 3.93 4.97 6.20 8.03 8.43 9.28 10.10 10.19 12.26 14.19 15.81 17.84
-9.60 -3.83 -4.27 -6.33 -6.10 -5.78 -4.86 -5.90 -5.15 -6.08 -6.37 -7.15 -6.12 -5.20 -5.42 -5.17 -3.15 -3.53 -7.08 -8.38 -8.24 -7.04 -4.86 -4.46 -3.02 -1.65 -0.38 0.65 1.75 2.48 3.22 3.95 4.81 6.88 8.32 8.97 9.26 9.83 9.61 10.75 12.20 13.56 16.03
-11.07 -10.34 -6.42 -9.00 -8.60 -10.62 -9.96 -6.66 -5.58 -7.46 -8.03 -7.94 -7.25 -3.30 5.99 4.62 -2.04 -4.63 -7.52 -7.85 -8.61 -7.73 -6.50 -5.67 -4.59 -3.35 -2.10 -0.29 0.66 1.81 2.06 3.21 4.79 6.44 8.82 9.42 8.63 7.89 9.56 11.25 12.11 13.53 15.52
-15.19 -14.18 -13.14 -11.94 -9.00 -9.01 -9.30 -7.79 -8.35 -9.50 -8.43 -8.25 -6.07 -4.51 5.78 -2.00 -3.98 -6.20 -6.74 -7.65 -8.46 -8.45 -7.53 -6.90 -6.16 -4.91 -3.83 -2.47 -0.61 0.61 0.76 1.89 4.13 5.83 8.49 8.37 7.88 8.46 9.35 10.12 11.19 12.64 14.12
-11.44 -10.02 -12.57 -13.37 -11.63 -10.58 -10.22 -10.31 -10.38 -11.59 -10.57 -10.54 -8.69 -6.93 -6.72 -6.90 -7.41 -8.76 -9.06 -9.67 -9.82 -9.09 -7.61 -8.77 -7.51 -6.88 -4.34 -3.29 -1.65 -0.86 -0.10 0.77 4.45 5.17 8.54 7.66 7.20 7.64 8.56 8.97 10.09 11.18 12.73
-14.91 -15.65 -14.24 -13.97 -12.29 -9.58 -8.60 -8.38 -9.27 -9.34 -9.92 -9.72 -11.07 -10.53 -8.36 -7.68 -9.86 -11.74 -11.49 -11.02 -10.90 -10.28 -9.73 -9.53 -8.55 -8.39 -7.41 -5.87 -3.83 -2.44 -1.57 0.46 4.11 6.82 9.48 7.53 6.74 7.41 7.90 8.31 9.06 10.11 11.89
-22.47 -18.60 -15.58 -13.40 -16.32 -13.88 -13.93 -9.21 -8.01 -8.71 -9.03 -8.35 -7.78 -8.01 -8.41 -10.41 -12.16 -13.18 -13.41 -13.58 -13.44 -11.90 -10.91 -10.35 -9.00 -8.45 -8.68 -7.77 -7.28 -6.60 -3.64 -0.01 4.52 10.91 8.09 6.79 6.15 5.44 6.51 7.40 7.50 9.00 9.28
-19.11 -18.00 -14.93 -9.93 -8.29 -8.05 -9.60 -8.44 -7.25 -6.38 -5.73 -5.65 -6.36 -7.68 -10.10 -12.02 -12.77 -13.42 -14.45 -15.74 -14.00 -12.54 -12.90 -11.16 -9.99 -10.44 -9.96 -7.20 -5.87 -1.95 1.56 7.10 12.96 9.11 5.57 4.96 4.69 5.36 5.91 5.59 5.92 7.23 7.45
MSLP
1030.46 1030.62 1030.91 1031.26 1031.53 1031.56 1031.83 1032.10 1032.25 1032.41 1032.54 1032.67 1032.72 1032.68 1032.64 1032.65 1032.55 1032.46 1032.43 1032.13 1032.05 1031.86 1031.65 1031.31 1030.95 1030.60 1030.13 1029.74 1029.38 1029.05 1028.47 1027.93 1026.55 1024.89 1024.44 1023.71 1023.24 1022.83 1022.24 1021.93 1021.42 1020.86 1020.13
1030.15 1030.51 1030.80 1031.05 1031.37 1031.58 1031.92 1032.18 1032.41 1032.48 1032.73 1032.77 1032.78 1032.77 1032.74 1032.84 1032.71 1032.62 1032.44 1032.13 1031.99 1031.70 1031.47 1031.13 1030.66 1030.23 1029.88 1029.48 1029.03 1028.50 1027.99 1027.59 1026.75 1024.82 1024.34 1023.77 1023.00 1022.45 1021.74 1021.25 1020.74 1020.11 1019.51
1029.71 1030.12 1030.78 1031.10 1031.39 1031.75 1031.85 1032.10 1032.31 1032.50 1032.63 1032.87 1032.87 1032.91 1032.86 1032.82 1032.67 1032.42 1032.19 1031.94 1031.72 1031.53 1031.26 1030.94 1030.53 1030.10 1029.51 1029.09 1028.75 1028.06 1027.51 1026.98 1026.36 1025.27 1023.63 1023.36 1022.56 1022.04 1021.13 1020.52 1019.73 1019.21 1018.70
1029.38 1029.98 1030.71 1031.12 1031.36 1031.61 1031.82 1032.06 1032.38 1032.50 1032.61 1032.79 1032.79 1032.89 1032.81 1032.63 1032.35 1032.05 1031.88 1031.62 1031.35 1031.12 1030.92 1030.64 1030.30 1029.94 1029.45 1028.96 1028.45 1027.94 1027.33 1026.59 1025.94 1025.13 1024.02 1022.93 1022.43 1021.93 1021.06 1019.93 1018.65 1018.45 1017.75
1029.19 1029.73 1030.08 1030.51 1030.89 1031.26 1031.86 1032.16 1032.33 1032.42 1032.45 1032.57 1032.60 1032.77 1032.68 1032.44 1031.92 1031.78 1031.48 1031.17 1030.93 1030.61 1030.45 1030.26 1029.86 1029.53 1029.21 1028.73 1027.99 1027.31 1026.89 1026.22 1025.54 1024.77 1023.75 1022.95 1021.88 1021.35 1020.75 1019.89 1018.84 1018.07 1016.96
1028.75 1029.04 1029.54 1030.17 1030.80 1031.34 1031.64 1031.91 1032.23 1032.41 1032.36 1032.35 1032.47 1032.64 1032.57 1032.26 1031.96 1031.42 1031.03 1030.75 1030.57 1030.33 1029.88 1029.61 1029.43 1029.11 1028.50 1028.06 1027.59 1027.03 1026.49 1025.73 1025.06 1024.41 1023.50 1022.93 1022.16 1021.97 1021.49 1020.78 1019.71 1018.72 1016.62
1028.31 1028.92 1029.37 1029.97 1030.65 1031.12 1031.57 1032.01 1032.22 1032.17 1031.95 1031.99 1032.19 1032.32 1032.31 1032.30 1031.60 1031.06 1030.74 1030.50 1030.24 1029.97 1029.67 1029.29 1028.81 1028.49 1028.10 1027.52 1027.08 1026.47 1025.96 1025.59 1024.80 1023.94 1022.97 1022.61 1021.98 1021.88 1021.48 1020.78 1020.14 1019.32 1017.65
1027.96 1028.63 1029.25 1029.97 1030.63 1031.20 1031.71 1031.94 1031.81 1031.80 1031.91 1031.88 1031.98 1032.13 1032.16 1031.97 1031.35 1030.87 1030.38 1030.08 1029.94 1029.66 1029.35 1028.93 1028.37 1027.67 1027.32 1026.80 1026.03 1025.24 1024.61 1024.25 1023.85 1023.29 1022.47 1021.80 1021.61 1021.13 1020.80 1020.16 1019.29 1018.37 1017.62
1027.52 1028.09 1028.79 1029.58 1030.50 1031.09 1031.54 1031.67 1031.71 1031.84 1031.79 1031.77 1031.85 1031.94 1032.03 1031.89 1031.28 1030.47 1029.96 1029.64 1029.25 1028.96 1028.65 1028.17 1027.62 1026.92 1026.50 1025.64 1024.52 1023.70 1023.10 1022.64 1022.12 1021.43 1020.67 1020.03 1019.62 1019.20 1018.84 1018.41 1017.93 1017.54 1016.28
1026.89 1027.55 1028.49 1029.46 1030.32 1030.88 1031.21 1031.50 1031.58 1031.77 1031.48 1031.60 1031.69 1031.73 1031.78 1031.54 1031.01 1030.24 1029.64 1029.10 1028.57 1028.09 1027.63 1027.08 1026.65 1025.78 1024.79 1023.89 1023.29 1022.72 1021.78 1021.00 1020.40 1019.61 1019.05 1018.57 1018.29 1018.00 1017.70 1017.49 1017.13 1016.62 1015.85
1026.73 1027.61 1028.54 1029.44 1030.11 1030.57 1031.02 1031.29 1031.51 1031.43 1031.27 1031.43 1031.47 1031.36 1031.29 1031.00 1030.54 1029.70 1029.09 1028.47 1027.92 1027.16 1026.52 1025.87 1025.40 1024.69 1023.64 1022.50 1021.84 1021.14 1020.25 1019.49 1018.66 1018.17 1017.85 1017.34 1016.93 1016.68 1016.41 1016.19 1015.98 1015.56 1014.64
1026.78 1027.66 1028.60 1029.35 1029.87 1030.39 1030.82 1031.09 1031.17 1031.02 1031.06 1031.07 1030.97 1030.66 1030.45 1030.13 1029.68 1029.03 1028.36 1027.57 1026.89 1026.41 1025.65 1024.94 1024.27 1023.42 1022.31 1021.51 1020.94 1020.60 1019.86 1019.16 1018.72 1018.22 1017.51 1016.69 1015.97 1015.31 1014.87 1014.55 1014.33 1014.04 1013.59
1026.99 1027.85 1028.55 1029.14 1029.64 1030.09 1030.53 1030.65 1030.51 1030.49 1030.50 1030.60 1030.51 1030.08 1029.61 1029.35 1029.06 1028.47 1027.65 1026.97 1026.27 1025.48 1024.79 1023.80 1023.03 1022.83 1022.48 1022.06 1021.36 1020.55 1020.00 1019.53 1018.92 1018.18 1017.31 1016.45 1015.68 1014.84 1014.08 1013.55 1013.20 1012.65 1012.22
1026.94 1027.72 1028.39 1028.90 1029.36 1029.69 1029.80 1029.86 1029.97 1029.94 1030.05 1030.06 1029.94 1029.59 1029.05 1028.59 1028.18 1027.61 1026.95 1026.34 1025.48 1024.67 1024.17 1024.13 1023.86 1023.76 1023.13 1022.39 1021.71 1020.88 1020.33 1019.73 1019.09 1018.23 1017.22 1016.25 1015.36 1014.43 1013.45 1012.96 1012.26 1011.62 1011.17
1026.76 1027.40 1028.01 1028.62 1028.96 1029.09 1029.23 1029.23 1029.23 1029.38 1029.34 1029.29 1029.00 1028.67 1028.23 1027.62 1027.09 1026.22 1025.49 1025.12 1024.61 1024.19 1024.16 1024.56 1024.45 1023.94 1023.11 1022.48 1021.82 1021.10 1020.25 1019.49 1018.71 1017.85 1016.91 1015.80 1014.72 1013.79 1012.56 1012.01 1011.32 1010.68 1010.09
1026.68 1027.25 1027.55 1027.87 1028.16 1028.34 1028.54 1028.56 1028.45 1028.07 1027.78 1027.48 1027.10 1026.82 1026.64 1026.29 1026.05 1025.57 1025.02 1024.50 1024.14 1024.39 1024.95 1025.29 1024.84 1024.24 1023.52 1022.78 1021.92 1020.83 1019.99 1019.21 1018.36 1017.42 1016.40 1015.26 1014.03 1012.68 1011.59 1010.70 1010.25 1009.58 1008.66
1026.08 1026.47 1026.93 1027.30 1027.65 1027.93 1028.19 1028.38 1028.34 1028.06 1027.87 1027.52 1027.11 1026.76 1026.37 1026.22 1025.67 1025.35 1024.77 1024.35 1025.07 1025.15 1025.84 1025.33 1025.00 1024.26 1023.45 1022.67 1021.81 1020.90 1019.86 1018.88 1018.02 1016.94 1015.86 1014.72 1013.60 1012.13 1010.91 1009.89 1008.97 1008.17 1007.04
1026.29 1026.50 1026.81 1026.99 1027.28 1027.57 1027.87 1028.12 1028.22 1028.29 1028.32 1027.97 1027.64 1027.47 1026.91 1025.98 1025.79 1025.19 1024.74 1025.25 1025.93 1025.97 1025.78 1025.33 1024.75 1024.08 1023.33 1022.45 1021.47 1020.68 1019.68 1018.61 1017.47 1016.30 1015.15 1014.09 1013.03 1011.88 1010.49 1008.99 1007.94 1006.93 1005.72
1026.27 1026.54 1026.76 1027.14 1027.36 1027.41 1027.50 1027.71 1027.80 1027.89 1028.00 1028.11 1028.04 1027.41 1027.46 1026.69 1025.86 1025.40 1025.69 1026.23 1026.36 1026.03 1025.56 1025.15 1024.47 1023.79 1022.98 1022.13 1021.27 1020.30 1019.41 1018.17 1017.00 1015.71 1014.45 1013.46 1012.41 1011.40 1010.03 1008.75 1007.39 1005.97 1004.61
1026.16 1026.29 1026.60 1027.01 1027.42 1027.66 1027.50 1027.56 1027.56 1027.50 1027.60 1027.73 1027.74 1027.50 1027.34 1027.16 1026.40 1026.22 1026.25 1026.29 1026.19 1025.76 1025.32 1024.82 1024.11 1023.48 1022.67 1021.80 1020.75 1019.76 1018.67 1017.53 1016.30 1015.07 1013.83 1012.78 1011.84 1010.89 1009.66 1008.33 1007.00 1005.55 1003.93
1026.40 1026.52 1026.59 1027.01 1027.23 1027.31 1027.29 1027.11 1027.33 1027.30 1027.30 1027.21 1027.04 1026.88 1026.42 1025.70 1025.95 1025.93 1025.95 1025.87 1025.79 1025.46 1025.10 1024.54 1023.88 1023.10 1022.30 1021.37 1020.40 1019.40 1018.37 1017.12 1015.91 1014.61 1013.22 1012.08 1011.23 1010.20 1009.12 1007.95 1006.62 1005.19 1003.76
1026.34 1026.56 1026.75 1026.82 1026.80 1026.86 1026.93 1026.94 1026.92 1027.03 1026.85 1026.74 1026.41 1026.31 1025.76 1025.70 1025.64 1025.61 1025.41 1025.29 1025.09 1024.91 1024.58 1024.11 1023.40 1022.54 1021.85 1021.10 1020.11 1019.10 1018.02 1016.73 1015.39 1014.17 1012.74 1011.70 1010.78 1009.74 1008.69 1007.52 1006.24 1004.89 1003.57
1026.21 1026.28 1026.35 1026.44 1026.43 1026.46 1026.53 1026.53 1026.52 1026.45 1026.31 1026.13 1026.04 1025.85 1025.69 1025.46 1025.34 1025.22 1024.93 1024.64 1024.38 1024.07 1023.71 1023.43 1022.77 1021.82 1021.09 1020.49 1019.77 1018.94 1017.79 1016.40 1015.13 1014.03 1012.49 1011.45 1010.48 1009.50 1008.47 1007.29 1006.11 1004.86 1003.68
1025.76 1026.04 1026.06 1026.11 1026.11 1026.10 1026.06 1025.92 1025.74 1025.61 1025.53 1025.48 1025.42 1025.31 1025.17 1024.97 1024.88 1024.70 1024.39 1024.02 1023.72 1023.37 1022.96 1022.54 1022.04 1021.42 1020.73 1019.92 1019.01 1018.06 1017.16 1015.83 1014.83 1013.58 1012.36 1011.44 1010.42 1009.39 1008.39 1007.33 1006.25 1005.18 1004.15
1025.49 1025.85 1025.82 1025.71 1025.61 1025.44 1025.30 1025.12 1024.96 1024.84 1024.73 1024.63 1024.51 1024.46 1024.34 1024.39 1024.38 1024.09 1023.79 1023.67 1023.29 1022.88 1022.15 1021.76 1021.12 1020.55 1020.03 1019.18 1018.28 1017.35 1016.25 1014.89 1013.84 1012.69 1012.01 1011.34 1010.52 1009.57 1008.55 1007.58 1006.62 1005.65 1004.93
1025.18 1025.31 1025.16 1024.91 1024.81 1024.65 1024.47 1024.31 1024.08 1023.93 1023.82 1023.65 1023.70 1023.71 1023.72 1023.76 1023.69 1023.47 1023.19 1022.88 1022.56 1022.02 1021.51 1020.91 1020.23 1019.77 1019.19 1018.26 1017.27 1016.33 1015.30 1014.16 1012.49 1012.03 1011.72 1011.23 1010.55 1009.68 1008.82 1008.03 1007.18 1006.42 1005.80
Wind_Speed
6 6 7 6 6 6 6 5 5 5 5 6 6 6 6 7 7 7 7 7 8 9 8 9 11 10 8 9 8 8 9 9 12 11 11 14 16 14 11 11 11 11 11
7 6 6 6 6 6 5 5 4 4 3 3 4 4 4 5 5 6 6 6 8 9 10 11 12 9 12 11 9 12 11 11 11 18 13 11 16 14 14 14 11 10 11
7 7 6 6 5 5 5 4 3 3 3 2 1 2 4 4 6 5 5 8 9 9 9 11 12 12 13 11 12 11 10 10 11 12 14 10 11 12 14 13 12 11 10
8 7 7 7 6 5 5 4 4 3 3 2 1 2 3 5 5 5 8 9 9 9 10 11 12 12 14 13 12 13 12 12 12 12 13 12 11 11 12 13 13 9 10
8 8 9 7 6 6 5 4 3 3 3 1 1 2 3 5 4 9 9 10 11 12 11 11 12 14 21 18 11 12 13 11 11 12 13 12 11 9 11 10 13 12 12
10 11 8 7 6 6 5 4 3 4 3 2 1 2 4 4 11 13 13 11 11 12 12 13 13 14 15 21 22 24 20 14 14 11 12 13 16 13 12 12 13 13 15
8 6 7 7 7 6 4 4 4 2 1 2 2 4 4 5 12 15 16 10 11 11 12 13 13 11 15 15 19 22 21 22 23 17 17 15 16 15 14 15 15 15 17
8 7 7 7 6 5 4 4 2 0 2 2 3 4 5 6 14 16 16 10 10 11 12 13 15 16 15 16 17 15 15 15 16 14 16 16 16 15 15 15 17 17 15
9 9 9 8 6 5 4 3 2 1 2 1 3 3 6 8 14 16 15 10 11 12 12 13 15 16 20 25 18 15 14 15 18 29 30 31 31 29 25 13 11 12 14
8 8 8 7 6 5 4 4 2 3 2 2 4 5 6 8 14 15 14 8 10 10 12 14 18 20 26 27 17 15 16 17 17 18 17 21 25 21 30 19 13 14 14
7 7 7 6 6 4 4 3 3 2 2 3 5 5 6 8 9 15 15 9 9 10 9 9 10 24 28 28 28 17 17 19 18 13 12 11 11 12 12 14 15 15 14
7 7 7 6 4 4 4 3 3 0 2 4 4 5 4 6 11 13 17 18 18 11 11 11 12 27 29 28 23 27 31 27 12 11 12 12 12 11 11 12 15 15 15
7 6 6 5 5 5 4 4 2 1 1 4 4 6 6 6 6 15 18 20 20 13 11 19 26 24 27 21 26 27 20 9 9 10 11 12 11 12 14 12 13 17 19
7 7 6 5 5 4 3 3 2 2 3 4 4 6 7 7 7 6 8 9 12 13 13 8 17 18 19 15 12 13 9 9 9 11 12 12 12 11 12 11 12 12 13
6 5 5 4 4 3 3 3 3 4 4 3 5 6 6 6 6 15 15 9 9 10 11 6 7 8 9 9 9 9 9 9 9 9 11 11 12 11 12 10 11 12 13
6 5 5 5 4 4 3 3 7 10 12 15 17 14 7 13 19 20 20 20 19 19 3 4 7 8 9 9 9 10 9 11 10 10 11 11 12 12 12 11 11 12 13
6 6 4 4 4 3 3 3 4 4 9 12 12 14 15 16 17 17 19 18 16 12 2 6 7 8 8 9 9 9 11 11 12 10 11 11 12 13 14 12 12 12 13
3 5 4 4 4 3 3 3 3 4 2 5 6 10 14 14 14 16 15 11 5 5 3 6 7 7 8 9 9 10 11 11 11 11 11 11 11 11 13 12 12 13 13
5 4 3 3 3 4 3 4 4 4 4 4 5 7 6 13 14 10 10 1 3 5 5 6 6 7 8 9 9 10 10 11 12 12 11 11 11 11 12 12 13 17 18
3 4 4 3 2 3 4 4 4 4 4 4 5 6 3 2 2 3 2 2 4 5 6 7 7 7 8 9 9 10 10 11 11 11 11 11 11 11 12 13 12 13 13
3 3 3 2 4 4 4 5 5 4 5 5 6 6 14 7 2 4 4 4 4 5 7 7 8 7 8 9 9 9 10 11 11 12 12 11 11 11 12 12 12 12 12
2 2 3 4 3 3 4 4 4 5 5 5 5 6 15 3 4 5 5 5 5 6 6 7 8 7 7 9 9 10 11 12 11 11 12 12 11 11 11 11 11 11 11
3 4 3 3 3 4 4 5 5 5 6 5 5 5 4 5 5 5 6 6 5 6 6 5 7 7 7 8 9 9 10 11 11 12 13 12 11 10 10 11 10 10 9
3 3 3 2 2 4 5 5 5 7 6 6 5 4 5 5 5 6 6 6 6 6 6 6 6 8 9 9 9 9 10 11 10 12 12 10 10 11 10 9 9 10 8
3 3 4 4 4 4 4 5 5 5 5 5 5 5 5 4 5 6 6 6 6 7 7 7 6 9 11 13 14 15 15 20 16 11 6 8 10 12 10 8 9 8 8
4 4 4 4 4 4 4 5 5 5 6 5 5 5 5 5 6 6 6 5 6 7 7 7 9 12 13 12 13 16 18 19 16 6 6 6 7 7 8 8 11 7 8
Wind_Direction
149 143 139 133 115 99 91 86 79 73 54 48 37 24 17 6 358 348 340 328 328 322 325 321 315 315 309 307 301 292 284 280 276 283 283 300 295 291 291 286 284 284 287
164 152 142 135 127 114 114 113 107 97 76 57 31 16 4 346 331 322 315 312 312 319 319 314 311 311 304 303 299 297 290 288 280 287 287 289 289 297 292 286 283 277 276
164 157 156 158 155 156 151 141 129 121 109 67 34 355 342 332 322 312 309 320 317 312 309 308 306 306 302 302 299 296 294 290 285 283 290 286 286 296 297 289 283 275 269
171 168 178 183 181 173 164 161 164 161 149 156 153 345 339 329 315 329 323 317 312 311 307 305 303 299 299 302 298 295 294 295 292 285 285 289 284 287 286 295 292 284 283
176 187 197 183 171 163 168 175 176 165 151 145 84 360 345 327 336 327 322 319 314 312 309 304 301 301 299 296 292 293 296 295 296 295 292 295 295 297 288 301 294 300 289
191 204 185 172 158 169 172 182 189 193 167 127 41 359 343 334 325 325 327 318 314 309 309 309 306 301 298 301 297 295 291 291 284 286 293 291 292 294 293 296 299 304 301
197 182 176 168 174 174 174 190 206 203 71 31 7 350 336 323 321 325 322 312 308 308 306 307 306 302 299 296 295 293 291 285 281 284 284 284 290 291 290 288 279 273 278
199 183 172 170 171 164 184 203 201 117 332 350 337 332 326 317 321 319 317 313 304 299 300 300 297 295 293 293 287 279 274 270 270 270 266 270 270 272 266 265 266 268 269
202 194 183 167 166 174 194 200 202 245 289 330 318 320 312 304 312 317 320 312 301 297 295 290 284 287 288 287 284 284 283 278 268 270 270 273 275 276 276 277 272 278 278
200 187 154 153 167 179 188 198 178 238 276 319 311 303 292 291 305 313 316 300 297 295 288 284 279 286 296 299 295 287 280 277 272 269 266 266 269 268 270 268 271 267 267
146 141 141 154 165 164 174 184 204 259 336 314 298 289 274 280 290 312 308 300 287 286 286 293 288 290 294 294 292 281 275 282 292 302 301 280 262 253 250 245 247 249 256
145 146 151 155 175 162 176 199 221 246 315 310 299 301 275 279 289 299 303 299 305 302 293 291 287 287 295 310 318 313 309 309 308 301 294 288 282 273 267 259 251 250 251
144 154 161 165 176 173 189 211 229 199 302 302 305 307 306 297 283 289 296 301 303 301 294 296 321 329 319 314 306 309 315 308 301 296 292 290 288 287 284 274 269 262 262
160 171 171 179 185 194 203 209 218 257 274 280 291 287 285 287 280 272 281 277 282 297 303 340 324 328 317 315 313 312 307 302 299 292 288 288 289 286 277 271 270 267 264
168 172 179 181 191 207 231 234 246 237 221 226 237 245 267 265 274 291 309 308 305 333 348 345 330 323 325 320 313 307 306 304 299 294 293 291 289 282 279 274 266 267 261
168 177 188 188 193 201 219 254 259 270 278 283 287 286 274 284 306 302 309 311 330 337 19 323 315 317 316 313 311 311 309 306 302 301 299 294 295 291 285 281 271 266 266
176 183 182 185 191 192 214 233 272 297 300 295 295 293 296 297 298 306 305 318 352 346 312 311 301 306 307 306 306 307 306 305 303 297 298 299 298 298 293 284 281 275 272
158 180 183 189 188 184 198 219 241 258 263 302 302 300 291 290 303 301 322 354 338 326 287 297 298 300 299 303 306 304 302 301 301 300 301 301 299 299 303 293 282 279 279
178 196 188 200 207 208 202 211 231 234 246 243 289 301 294 302 299 316 330 280 290 295 300 293 290 296 296 299 296 297 297 298 300 299 301 304 304 303 300 298 299 299 289
191 207 187 189 209 219 220 219 234 229 239 246 257 262 278 291 253 276 267 271 284 287 295 291 295 290 294 295 297 300 303 305 305 303 301 306 306 303 300 300 299 301 298
193 204 203 190 220 217 225 232 242 234 245 242 251 257 266 261 255 275 272 273 263 275 284 286 290 289 293 294 298 301 304 303 305 306 307 312 311 305 302 299 299 299 300
188 204 205 220 235 234 236 237 235 241 243 246 263 263 282 307 284 280 275 264 261 263 265 272 281 284 288 292 300 303 303 304 305 312 308 317 310 307 304 305 305 305 306
206 222 220 226 221 232 245 243 246 241 250 245 251 258 254 263 271 269 273 277 274 279 274 262 276 289 289 288 289 289 294 295 303 309 307 315 313 310 310 310 314 315 318
184 208 222 230 223 239 249 254 240 243 243 248 245 238 251 259 266 271 276 280 284 280 273 277 271 276 289 290 291 290 285 287 297 299 307 313 314 317 315 319 325 326 327
195 218 220 231 232 239 247 248 250 244 241 242 250 246 251 253 263 264 270 273 281 281 284 280 282 282 282 290 290 288 289 297 300 297 315 318 314 319 322 324 333 341 349
213 218 223 224 234 238 238 250 250 246 249 251 247 251 254 261 259 262 267 267 276 278 283 284 281 280 285 290 289 294 303 308 311 351 344 324 325 330 336 339 346 355 359